Year,Month,Day,Hour,Minute,Value (Times are PST for temperature in C)
2013,07,07,00,00,17.60
2013,07,07,00,01,17.60
2013,07,07,00,02,17.50
2013,07,07,00,03,17.50
2013,07,07,00,04,17.50
2013,07,07,00,05,17.50
2013,07,07,00,06,17.40
2013,07,07,00,07,17.40
2013,07,07,00,08,17.40
2013,07,07,00,09,17.40
2013,07,07,00,10,17.30
2013,07,07,00,11,17.30
2013,07,07,00,12,17.30
2013,07,07,00,13,17.30
2013,07,07,00,14,17.20
2013,07,07,00,15,17.20
2013,07,07,00,16,17.20
2013,07,07,00,17,17.20
2013,07,07,00,18,17.20
2013,07,07,00,19,17.20
2013,07,07,00,20,17.10
2013,07,07,00,21,17.10
2013,07,07,00,22,17.10
2013,07,07,00,23,17.00
2013,07,07,00,24,17.00
2013,07,07,00,25,17.00
2013,07,07,00,26,16.90
2013,07,07,00,27,16.90
2013,07,07,00,28,16.90
2013,07,07,00,29,16.90
2013,07,07,00,30,16.90
2013,07,07,00,31,16.90
2013,07,07,00,32,16.90
2013,07,07,00,33,16.90
2013,07,07,00,34,16.90
2013,07,07,00,35,16.80
2013,07,07,00,36,16.80
2013,07,07,00,37,16.80
2013,07,07,00,38,16.80
2013,07,07,00,39,16.80
2013,07,07,00,40,16.80
2013,07,07,00,41,16.80
2013,07,07,00,42,16.70
2013,07,07,00,43,16.70
2013,07,07,00,44,16.70
2013,07,07,00,45,16.70
2013,07,07,00,46,16.70
2013,07,07,00,47,16.70
2013,07,07,00,48,16.60
2013,07,07,00,49,16.60
2013,07,07,00,50,16.60
2013,07,07,00,51,16.60
2013,07,07,00,52,16.60
2013,07,07,00,53,16.60
2013,07,07,00,54,16.50
2013,07,07,00,55,16.50
2013,07,07,00,56,16.50
2013,07,07,00,57,16.50
2013,07,07,00,58,16.40
2013,07,07,00,59,16.40
2013,07,07,01,00,16.40
2013,07,07,01,01,16.40
2013,07,07,01,02,16.40
2013,07,07,01,03,16.40
2013,07,07,01,04,16.40
2013,07,07,01,05,16.40
2013,07,07,01,06,16.40
2013,07,07,01,07,16.30
2013,07,07,01,08,16.30
2013,07,07,01,09,16.30
2013,07,07,01,10,16.30
2013,07,07,01,11,16.30
2013,07,07,01,12,16.30
2013,07,07,01,13,16.30
2013,07,07,01,14,16.20
2013,07,07,01,15,16.20
2013,07,07,01,16,16.20
2013,07,07,01,17,16.20
2013,07,07,01,18,16.20
2013,07,07,01,19,16.20
2013,07,07,01,20,16.20
2013,07,07,01,21,16.20
2013,07,07,01,22,16.20
2013,07,07,01,23,16.10
2013,07,07,01,24,16.10
2013,07,07,01,25,16.10
2013,07,07,01,26,16.10
2013,07,07,01,27,16.10
2013,07,07,01,28,16.10
2013,07,07,01,29,16.10
2013,07,07,01,30,16.00
2013,07,07,01,31,16.00
2013,07,07,01,32,16.00
2013,07,07,01,33,16.00
2013,07,07,01,34,16.00
2013,07,07,01,35,16.00
2013,07,07,01,36,16.00
2013,07,07,01,37,16.10
2013,07,07,01,38,16.00
2013,07,07,01,39,16.00
2013,07,07,01,40,16.00
2013,07,07,01,41,16.00
2013,07,07,01,42,16.00
2013,07,07,01,43,16.00
2013,07,07,01,44,16.00
2013,07,07,01,45,16.00
2013,07,07,01,46,15.90
2013,07,07,01,47,15.90
2013,07,07,01,48,15.90
2013,07,07,01,49,15.90
2013,07,07,01,50,15.90
2013,07,07,01,51,15.90
2013,07,07,01,52,15.90
2013,07,07,01,53,15.90
2013,07,07,01,54,15.90
2013,07,07,01,55,15.80
2013,07,07,01,56,15.80
2013,07,07,01,57,15.80
2013,07,07,01,58,15.80
2013,07,07,01,59,15.80
2013,07,07,02,00,15.80
2013,07,07,02,01,15.80
2013,07,07,02,02,15.80
2013,07,07,02,03,15.80
2013,07,07,02,04,15.80
2013,07,07,02,05,15.80
2013,07,07,02,06,15.80
2013,07,07,02,07,15.80
2013,07,07,02,08,15.70
2013,07,07,02,09,15.70
2013,07,07,02,10,15.70
2013,07,07,02,11,15.70
2013,07,07,02,12,15.70
2013,07,07,02,13,15.70
2013,07,07,02,14,15.70
2013,07,07,02,15,15.70
2013,07,07,02,16,15.70
2013,07,07,02,17,15.60
2013,07,07,02,18,15.60
2013,07,07,02,19,15.60
2013,07,07,02,20,15.60
2013,07,07,02,21,15.60
2013,07,07,02,22,15.60
2013,07,07,02,23,15.60
2013,07,07,02,24,15.60
2013,07,07,02,25,15.60
2013,07,07,02,26,15.60
2013,07,07,02,27,15.60
2013,07,07,02,28,15.50
2013,07,07,02,29,15.50
2013,07,07,02,30,15.50
2013,07,07,02,31,15.50
2013,07,07,02,32,15.50
2013,07,07,02,33,15.50
2013,07,07,02,34,15.50
2013,07,07,02,35,15.50
2013,07,07,02,36,15.50
2013,07,07,02,37,15.50
2013,07,07,02,38,15.50
2013,07,07,02,39,15.50
2013,07,07,02,40,15.50
2013,07,07,02,41,15.50
2013,07,07,02,42,15.50
2013,07,07,02,43,15.50
2013,07,07,02,44,15.50
2013,07,07,02,45,15.40
2013,07,07,02,46,15.40
2013,07,07,02,47,15.40
2013,07,07,02,48,15.40
2013,07,07,02,49,15.40
2013,07,07,02,50,15.40
2013,07,07,02,51,15.40
2013,07,07,02,52,15.30
2013,07,07,02,53,15.30
2013,07,07,02,54,15.30
2013,07,07,02,55,15.30
2013,07,07,02,56,15.30
2013,07,07,02,57,15.30
2013,07,07,02,58,15.30
2013,07,07,02,59,15.30
2013,07,07,03,00,15.30
2013,07,07,03,01,15.30
2013,07,07,03,02,15.30
2013,07,07,03,03,15.30
2013,07,07,03,04,15.30
2013,07,07,03,05,15.20
2013,07,07,03,06,15.20
2013,07,07,03,07,15.20
2013,07,07,03,08,15.20
2013,07,07,03,09,15.20
2013,07,07,03,10,15.20
2013,07,07,03,11,15.20
2013,07,07,03,12,15.20
2013,07,07,03,13,15.20
2013,07,07,03,14,15.20
2013,07,07,03,15,15.20
2013,07,07,03,16,15.20
2013,07,07,03,17,15.10
2013,07,07,03,18,15.10
2013,07,07,03,19,15.10
2013,07,07,03,20,15.10
2013,07,07,03,21,15.10
2013,07,07,03,22,15.10
2013,07,07,03,23,15.10
2013,07,07,03,24,15.10
2013,07,07,03,25,15.10
2013,07,07,03,26,15.00
2013,07,07,03,27,15.00
2013,07,07,03,28,15.00
2013,07,07,03,29,15.00
2013,07,07,03,30,15.00
2013,07,07,03,31,14.90
2013,07,07,03,32,14.90
2013,07,07,03,33,14.90
2013,07,07,03,34,14.90
2013,07,07,03,35,14.90
2013,07,07,03,36,15.00
2013,07,07,03,37,15.00
2013,07,07,03,38,15.00
2013,07,07,03,39,15.00
2013,07,07,03,40,15.00
2013,07,07,03,41,15.00
2013,07,07,03,42,14.90
2013,07,07,03,43,14.90
2013,07,07,03,44,14.90
2013,07,07,03,45,14.90
2013,07,07,03,46,14.90
2013,07,07,03,47,14.90
2013,07,07,03,48,14.90
2013,07,07,03,49,14.90
2013,07,07,03,50,14.90
2013,07,07,03,51,14.90
2013,07,07,03,52,14.80
2013,07,07,03,53,14.80
2013,07,07,03,54,14.80
2013,07,07,03,55,14.80
2013,07,07,03,56,14.80
2013,07,07,03,57,14.80
2013,07,07,03,58,14.80
2013,07,07,03,59,14.80
2013,07,07,04,00,14.80
2013,07,07,04,01,14.80
2013,07,07,04,02,14.80
2013,07,07,04,03,14.80
2013,07,07,04,04,14.80
2013,07,07,04,05,14.80
2013,07,07,04,06,14.80
2013,07,07,04,07,14.80
2013,07,07,04,08,14.80
2013,07,07,04,09,14.80
2013,07,07,04,10,14.70
2013,07,07,04,11,14.70
2013,07,07,04,12,14.70
2013,07,07,04,13,14.70
2013,07,07,04,14,14.70
2013,07,07,04,15,14.70
2013,07,07,04,16,14.70
2013,07,07,04,17,14.70
2013,07,07,04,18,14.70
2013,07,07,04,19,14.70
2013,07,07,04,20,14.70
2013,07,07,04,21,14.70
2013,07,07,04,22,14.70
2013,07,07,04,23,14.70
2013,07,07,04,24,14.70
2013,07,07,04,25,14.70
2013,07,07,04,26,14.70
2013,07,07,04,27,14.70
2013,07,07,04,28,14.70
2013,07,07,04,29,14.70
2013,07,07,04,30,14.60
2013,07,07,04,31,14.60
2013,07,07,04,32,14.60
2013,07,07,04,33,14.60
2013,07,07,04,34,14.60
2013,07,07,04,35,14.60
2013,07,07,04,36,14.60
2013,07,07,04,37,14.60
2013,07,07,04,38,14.60
2013,07,07,04,39,14.60
2013,07,07,04,40,14.60
2013,07,07,04,41,14.60
2013,07,07,04,42,14.60
2013,07,07,04,43,14.60
2013,07,07,04,44,14.60
2013,07,07,04,45,14.50
2013,07,07,04,46,14.50
2013,07,07,04,47,14.50
2013,07,07,04,48,14.50
2013,07,07,04,49,14.50
2013,07,07,04,50,14.50
2013,07,07,04,51,14.50
2013,07,07,04,52,14.50
2013,07,07,04,53,14.50
2013,07,07,04,54,14.50
2013,07,07,04,55,14.50
2013,07,07,04,56,14.50
2013,07,07,04,57,14.50
2013,07,07,04,58,14.40
2013,07,07,04,59,14.40
2013,07,07,05,00,14.40
2013,07,07,05,01,14.40
2013,07,07,05,02,14.40
2013,07,07,05,03,14.40
2013,07,07,05,04,14.40
2013,07,07,05,05,14.40
2013,07,07,05,06,14.40
2013,07,07,05,07,14.40
2013,07,07,05,08,14.40
2013,07,07,05,09,14.40
2013,07,07,05,10,14.40
2013,07,07,05,11,14.40
2013,07,07,05,12,14.40
2013,07,07,05,13,14.40
2013,07,07,05,14,14.40
2013,07,07,05,15,14.40
2013,07,07,05,16,14.40
2013,07,07,05,17,14.40
2013,07,07,05,18,14.40
2013,07,07,05,19,14.40
2013,07,07,05,20,14.40
2013,07,07,05,21,14.40
2013,07,07,05,22,14.30
2013,07,07,05,23,14.30
2013,07,07,05,24,14.30
2013,07,07,05,25,14.30
2013,07,07,05,26,14.30
2013,07,07,05,27,14.30
2013,07,07,05,28,14.30
2013,07,07,05,29,14.30
2013,07,07,05,30,14.30
2013,07,07,05,31,14.30
2013,07,07,05,32,14.30
2013,07,07,05,33,14.30
2013,07,07,05,34,14.30
2013,07,07,05,35,14.30
2013,07,07,05,36,14.30
2013,07,07,05,37,14.30
2013,07,07,05,38,14.30
2013,07,07,05,39,14.30
2013,07,07,05,40,14.30
2013,07,07,05,41,14.30
2013,07,07,05,42,14.30
2013,07,07,05,43,14.30
2013,07,07,05,44,14.20
2013,07,07,05,45,14.20
2013,07,07,05,46,14.20
2013,07,07,05,47,14.20
2013,07,07,05,48,14.20
2013,07,07,05,49,14.20
2013,07,07,05,50,14.20
2013,07,07,05,51,14.20
2013,07,07,05,52,14.20
2013,07,07,05,53,14.20
2013,07,07,05,54,14.20
2013,07,07,05,55,14.20
2013,07,07,05,56,14.20
2013,07,07,05,57,14.20
2013,07,07,05,58,14.20
2013,07,07,05,59,14.20
2013,07,07,06,00,14.20
2013,07,07,06,01,14.20
2013,07,07,06,02,14.20
2013,07,07,06,03,14.20
2013,07,07,06,04,14.20
2013,07,07,06,05,14.20
2013,07,07,06,06,14.20
2013,07,07,06,07,14.20
2013,07,07,06,08,14.20
2013,07,07,06,09,14.20
2013,07,07,06,10,14.20
2013,07,07,06,11,14.20
2013,07,07,06,12,14.20
2013,07,07,06,13,14.20
2013,07,07,06,14,14.20
2013,07,07,06,15,14.20
2013,07,07,06,16,14.20
2013,07,07,06,17,14.20
2013,07,07,06,18,14.20
2013,07,07,06,19,14.20
2013,07,07,06,20,14.20
2013,07,07,06,21,14.20
2013,07,07,06,22,14.20
2013,07,07,06,23,14.20
2013,07,07,06,24,14.20
2013,07,07,06,25,14.30
2013,07,07,06,26,14.30
2013,07,07,06,27,14.30
2013,07,07,06,28,14.30
2013,07,07,06,29,14.30
2013,07,07,06,30,14.30
2013,07,07,06,31,14.30
2013,07,07,06,32,14.30
2013,07,07,06,33,14.30
2013,07,07,06,34,14.30
2013,07,07,06,35,14.30
2013,07,07,06,36,14.30
2013,07,07,06,37,14.30
2013,07,07,06,38,14.30
2013,07,07,06,39,14.30
2013,07,07,06,40,14.30
2013,07,07,06,41,14.40
2013,07,07,06,42,14.40
2013,07,07,06,43,14.40
2013,07,07,06,44,14.40
2013,07,07,06,45,14.40
2013,07,07,06,46,14.40
2013,07,07,06,47,14.40
2013,07,07,06,48,14.50
2013,07,07,06,49,14.40
2013,07,07,06,50,14.50
2013,07,07,06,51,14.50
2013,07,07,06,52,14.40
2013,07,07,06,53,14.50
2013,07,07,06,54,14.50
2013,07,07,06,55,14.50
2013,07,07,06,56,14.50
2013,07,07,06,57,14.50
2013,07,07,06,58,14.50
2013,07,07,06,59,14.50
2013,07,07,07,00,14.50
2013,07,07,07,01,14.50
2013,07,07,07,02,14.50
2013,07,07,07,03,14.50
2013,07,07,07,04,14.50
2013,07,07,07,05,14.60
2013,07,07,07,06,14.60
2013,07,07,07,07,14.60
2013,07,07,07,08,14.60
2013,07,07,07,09,14.60
2013,07,07,07,10,14.60
2013,07,07,07,11,14.60
2013,07,07,07,12,14.60
2013,07,07,07,13,14.60
2013,07,07,07,14,14.60
2013,07,07,07,15,14.60
2013,07,07,07,16,14.60
2013,07,07,07,17,14.70
2013,07,07,07,18,14.60
2013,07,07,07,19,14.60
2013,07,07,07,20,14.60
2013,07,07,07,21,14.60
2013,07,07,07,22,14.60
2013,07,07,07,23,14.60
2013,07,07,07,24,14.60
2013,07,07,07,25,14.60
2013,07,07,07,26,14.60
2013,07,07,07,27,14.60
2013,07,07,07,28,14.60
2013,07,07,07,29,14.60
2013,07,07,07,30,14.70
2013,07,07,07,31,14.70
2013,07,07,07,32,14.70
2013,07,07,07,33,14.70
2013,07,07,07,34,14.70
2013,07,07,07,35,14.80
2013,07,07,07,36,14.80
2013,07,07,07,37,14.80
2013,07,07,07,38,14.80
2013,07,07,07,39,14.80
2013,07,07,07,40,14.80
2013,07,07,07,41,14.90
2013,07,07,07,42,14.90
2013,07,07,07,43,14.90
2013,07,07,07,44,14.90
2013,07,07,07,45,14.90
2013,07,07,07,46,14.90
2013,07,07,07,47,15.00
2013,07,07,07,48,15.00
2013,07,07,07,49,15.00
2013,07,07,07,50,15.10
2013,07,07,07,51,15.10
2013,07,07,07,52,15.10
2013,07,07,07,53,15.10
2013,07,07,07,54,15.20
2013,07,07,07,55,15.20
2013,07,07,07,56,15.20
2013,07,07,07,57,15.20
2013,07,07,07,58,15.20
2013,07,07,07,59,15.20
2013,07,07,08,00,15.20
2013,07,07,08,01,15.20
2013,07,07,08,02,15.20
2013,07,07,08,03,15.20
2013,07,07,08,04,15.20
2013,07,07,08,05,15.20
2013,07,07,08,06,15.30
2013,07,07,08,07,15.30
2013,07,07,08,08,15.30
2013,07,07,08,09,15.30
2013,07,07,08,10,15.40
2013,07,07,08,11,15.40
2013,07,07,08,12,15.40
2013,07,07,08,13,15.40
2013,07,07,08,14,15.40
2013,07,07,08,15,15.40
2013,07,07,08,16,15.40
2013,07,07,08,17,15.40
2013,07,07,08,18,15.40
2013,07,07,08,19,15.40
2013,07,07,08,20,15.40
2013,07,07,08,21,15.40
2013,07,07,08,22,15.40
2013,07,07,08,23,15.40
2013,07,07,08,24,15.40
2013,07,07,08,25,15.40
2013,07,07,08,26,15.40
2013,07,07,08,27,15.50
2013,07,07,08,28,15.50
2013,07,07,08,29,15.60
2013,07,07,08,30,15.60
2013,07,07,08,31,15.60
2013,07,07,08,32,15.50
2013,07,07,08,33,15.60
2013,07,07,08,34,15.50
2013,07,07,08,35,15.60
2013,07,07,08,36,15.50
2013,07,07,08,37,15.50
2013,07,07,08,38,15.50
2013,07,07,08,39,15.60
2013,07,07,08,40,15.60
2013,07,07,08,41,15.60
2013,07,07,08,42,15.60
2013,07,07,08,43,15.70
2013,07,07,08,44,15.70
2013,07,07,08,45,15.80
2013,07,07,08,46,15.80
2013,07,07,08,47,15.80
2013,07,07,08,48,15.80
2013,07,07,08,49,15.90
2013,07,07,08,50,15.90
2013,07,07,08,51,15.90
2013,07,07,08,52,16.00
2013,07,07,08,53,16.00
2013,07,07,08,54,16.10
2013,07,07,08,55,16.10
2013,07,07,08,56,16.10
2013,07,07,08,57,16.10
2013,07,07,08,58,16.10
2013,07,07,08,59,16.10
2013,07,07,09,00,16.20
2013,07,07,09,01,16.20
2013,07,07,09,02,16.20
2013,07,07,09,03,16.20
2013,07,07,09,04,16.20
2013,07,07,09,05,16.30
2013,07,07,09,06,16.30
2013,07,07,09,07,16.30
2013,07,07,09,08,16.40
2013,07,07,09,09,16.40
2013,07,07,09,10,16.50
2013,07,07,09,11,16.50
2013,07,07,09,12,16.60
2013,07,07,09,13,16.70
2013,07,07,09,14,16.70
2013,07,07,09,15,16.70
2013,07,07,09,16,16.70
2013,07,07,09,17,16.80
2013,07,07,09,18,16.80
2013,07,07,09,19,16.80
2013,07,07,09,20,16.90
2013,07,07,09,21,16.90
2013,07,07,09,22,16.90
2013,07,07,09,23,17.00
2013,07,07,09,24,17.00
2013,07,07,09,25,16.90
2013,07,07,09,26,16.90
2013,07,07,09,27,16.90
2013,07,07,09,28,16.90
2013,07,07,09,29,16.90
2013,07,07,09,30,16.90
2013,07,07,09,31,16.90
2013,07,07,09,32,16.90
2013,07,07,09,33,16.90
2013,07,07,09,34,16.90
2013,07,07,09,35,16.90
2013,07,07,09,36,16.90
2013,07,07,09,37,16.90
2013,07,07,09,38,16.90
2013,07,07,09,39,16.90
2013,07,07,09,40,16.90
2013,07,07,09,41,16.90
2013,07,07,09,42,16.90
2013,07,07,09,43,16.90
2013,07,07,09,44,16.90
2013,07,07,09,45,16.90
2013,07,07,09,46,16.90
2013,07,07,09,47,16.90
2013,07,07,09,48,17.00
2013,07,07,09,49,17.00
2013,07,07,09,50,17.00
2013,07,07,09,51,17.10
2013,07,07,09,52,17.10
2013,07,07,09,53,17.10
2013,07,07,09,54,17.10
2013,07,07,09,55,17.10
2013,07,07,09,56,17.20
2013,07,07,09,57,17.20
2013,07,07,09,58,17.20
2013,07,07,09,59,17.20
2013,07,07,10,00,17.20
2013,07,07,10,01,17.30
2013,07,07,10,02,17.30
2013,07,07,10,03,17.30
2013,07,07,10,04,17.40
2013,07,07,10,05,17.50
2013,07,07,10,06,17.50
2013,07,07,10,07,17.60
2013,07,07,10,08,17.70
2013,07,07,10,09,17.70
2013,07,07,10,10,17.80
2013,07,07,10,11,17.90
2013,07,07,10,12,18.00
2013,07,07,10,13,18.00
2013,07,07,10,14,18.10
2013,07,07,10,15,18.20
2013,07,07,10,16,18.30
2013,07,07,10,17,18.40
2013,07,07,10,18,18.50
2013,07,07,10,19,18.70
2013,07,07,10,20,18.80
2013,07,07,10,21,18.80
2013,07,07,10,22,18.80
2013,07,07,10,23,18.80
2013,07,07,10,24,18.80
2013,07,07,10,25,18.90
2013,07,07,10,26,19.00
2013,07,07,10,27,19.00
2013,07,07,10,28,19.10
2013,07,07,10,29,19.10
2013,07,07,10,30,19.20
2013,07,07,10,31,19.20
2013,07,07,10,32,19.30
2013,07,07,10,33,19.40
2013,07,07,10,34,19.50
2013,07,07,10,35,19.60
2013,07,07,10,36,19.60
2013,07,07,10,37,19.70
2013,07,07,10,38,19.60
2013,07,07,10,39,19.60
2013,07,07,10,40,19.50
2013,07,07,10,41,19.40
2013,07,07,10,42,19.40
2013,07,07,10,43,19.40
2013,07,07,10,44,19.40
2013,07,07,10,45,19.50
2013,07,07,10,46,19.50
2013,07,07,10,47,19.50
2013,07,07,10,48,19.50
2013,07,07,10,49,19.60
2013,07,07,10,50,19.60
2013,07,07,10,51,19.70
2013,07,07,10,52,19.80
2013,07,07,10,53,19.80
2013,07,07,10,54,19.90
2013,07,07,10,55,20.00
2013,07,07,10,56,19.90
2013,07,07,10,57,19.80
2013,07,07,10,58,19.80
2013,07,07,10,59,19.80
2013,07,07,11,00,19.90
2013,07,07,11,01,20.00
2013,07,07,11,02,20.10
2013,07,07,11,03,20.20
2013,07,07,11,04,20.20
2013,07,07,11,05,20.30
2013,07,07,11,06,20.30
2013,07,07,11,07,20.40
2013,07,07,11,08,20.50
2013,07,07,11,09,20.60
2013,07,07,11,10,20.70
2013,07,07,11,11,20.80
2013,07,07,11,12,20.90
2013,07,07,11,13,21.00
2013,07,07,11,14,21.10
2013,07,07,11,15,21.10
2013,07,07,11,16,21.10
2013,07,07,11,17,21.10
2013,07,07,11,18,21.20
2013,07,07,11,19,21.30
2013,07,07,11,20,21.40
2013,07,07,11,21,21.40
2013,07,07,11,22,21.30
2013,07,07,11,23,21.30
2013,07,07,11,24,21.30
2013,07,07,11,25,21.30
2013,07,07,11,26,21.40
2013,07,07,11,27,21.50
2013,07,07,11,28,21.50
2013,07,07,11,29,21.60
2013,07,07,11,30,21.60
2013,07,07,11,31,21.60
2013,07,07,11,32,21.60
2013,07,07,11,33,21.60
2013,07,07,11,34,21.50
2013,07,07,11,35,21.60
2013,07,07,11,36,21.60
2013,07,07,11,37,21.50
2013,07,07,11,38,21.50
2013,07,07,11,39,21.40
2013,07,07,11,40,21.40
2013,07,07,11,41,21.50
2013,07,07,11,42,21.50
2013,07,07,11,43,21.50
2013,07,07,11,44,21.50
2013,07,07,11,45,21.50
2013,07,07,11,46,21.50
2013,07,07,11,47,21.60
2013,07,07,11,48,21.60
2013,07,07,11,49,21.70
2013,07,07,11,50,21.80
2013,07,07,11,51,21.80
2013,07,07,11,52,21.90
2013,07,07,11,53,21.90
2013,07,07,11,54,21.90
2013,07,07,11,55,21.90
2013,07,07,11,56,21.90
2013,07,07,11,57,21.90
2013,07,07,11,58,22.00
2013,07,07,11,59,22.00
2013,07,07,12,00,22.10
2013,07,07,12,01,22.20
2013,07,07,12,02,22.20
2013,07,07,12,03,22.20
2013,07,07,12,04,22.20
2013,07,07,12,05,22.20
2013,07,07,12,06,22.20
2013,07,07,12,07,22.20
2013,07,07,12,08,22.30
2013,07,07,12,09,22.30
2013,07,07,12,10,22.30
2013,07,07,12,11,22.30
2013,07,07,12,12,22.30
2013,07,07,12,13,22.30
2013,07,07,12,14,22.30
2013,07,07,12,15,22.50
2013,07,07,12,16,22.60
2013,07,07,12,17,22.80
2013,07,07,12,18,22.90
2013,07,07,12,19,23.00
2013,07,07,12,20,23.10
2013,07,07,12,21,23.20
2013,07,07,12,22,23.30
2013,07,07,12,23,23.30
2013,07,07,12,24,23.30
2013,07,07,12,25,23.20
2013,07,07,12,26,23.10
2013,07,07,12,27,23.10
2013,07,07,12,28,23.10
2013,07,07,12,29,23.10
2013,07,07,12,30,23.10
2013,07,07,12,31,23.20
2013,07,07,12,32,23.20
2013,07,07,12,33,23.20
2013,07,07,12,34,23.30
2013,07,07,12,35,23.40
2013,07,07,12,36,23.40
2013,07,07,12,37,23.50
2013,07,07,12,38,23.50
2013,07,07,12,39,23.50
2013,07,07,12,40,23.50
2013,07,07,12,41,23.60
2013,07,07,12,42,23.60
2013,07,07,12,43,23.70
2013,07,07,12,44,23.80
2013,07,07,12,45,24.00
2013,07,07,12,46,24.20
2013,07,07,12,47,24.30
2013,07,07,12,48,24.30
2013,07,07,12,49,24.30
2013,07,07,12,50,24.30
2013,07,07,12,51,24.30
2013,07,07,12,52,24.30
2013,07,07,12,53,24.30
2013,07,07,12,54,24.30
2013,07,07,12,55,24.30
2013,07,07,12,56,24.20
2013,07,07,12,57,24.20
2013,07,07,12,58,24.20
2013,07,07,12,59,24.20
2013,07,07,13,00,24.20
2013,07,07,13,01,24.20
2013,07,07,13,02,24.20
2013,07,07,13,03,24.20
2013,07,07,13,04,24.20
2013,07,07,13,05,24.20
2013,07,07,13,06,24.30
2013,07,07,13,07,24.30
2013,07,07,13,08,24.40
2013,07,07,13,09,24.50
2013,07,07,13,10,24.60
2013,07,07,13,11,24.70
2013,07,07,13,12,24.80
2013,07,07,13,13,25.00
2013,07,07,13,14,25.10
2013,07,07,13,15,25.20
2013,07,07,13,16,25.20
2013,07,07,13,17,25.20
2013,07,07,13,18,25.30
2013,07,07,13,19,25.30
2013,07,07,13,20,25.30
2013,07,07,13,21,25.30
2013,07,07,13,22,25.30
2013,07,07,13,23,25.40
2013,07,07,13,24,25.50
2013,07,07,13,25,25.60
2013,07,07,13,26,25.70
2013,07,07,13,27,25.70
2013,07,07,13,28,25.80
2013,07,07,13,29,25.80
2013,07,07,13,30,25.70
2013,07,07,13,31,25.60
2013,07,07,13,32,25.50
2013,07,07,13,33,25.50
2013,07,07,13,34,25.60
2013,07,07,13,35,25.60
2013,07,07,13,36,25.70
2013,07,07,13,37,25.70
2013,07,07,13,38,25.70
2013,07,07,13,39,25.70
2013,07,07,13,40,25.70
2013,07,07,13,41,25.70
2013,07,07,13,42,25.70
2013,07,07,13,43,25.70
2013,07,07,13,44,25.70
2013,07,07,13,45,25.70
2013,07,07,13,46,25.80
2013,07,07,13,47,25.80
2013,07,07,13,48,25.80
2013,07,07,13,49,25.80
2013,07,07,13,50,25.80
2013,07,07,13,51,25.90
2013,07,07,13,52,26.00
2013,07,07,13,53,26.10
2013,07,07,13,54,26.10
2013,07,07,13,55,26.10
2013,07,07,13,56,26.10
2013,07,07,13,57,26.10
2013,07,07,13,58,26.20
2013,07,07,13,59,26.20
2013,07,07,14,00,26.20
2013,07,07,14,01,26.20
2013,07,07,14,02,26.30
2013,07,07,14,03,26.20
2013,07,07,14,04,26.20
2013,07,07,14,05,26.20
2013,07,07,14,06,26.30
2013,07,07,14,07,26.30
2013,07,07,14,08,26.20
2013,07,07,14,09,26.20
2013,07,07,14,10,26.20
2013,07,07,14,11,26.20
2013,07,07,14,12,26.30
2013,07,07,14,13,26.40
2013,07,07,14,14,26.50
2013,07,07,14,15,26.60
2013,07,07,14,16,26.80
2013,07,07,14,17,27.00
2013,07,07,14,18,27.00
2013,07,07,14,19,27.00
2013,07,07,14,20,27.10
2013,07,07,14,21,27.20
2013,07,07,14,22,27.20
2013,07,07,14,23,27.30
2013,07,07,14,24,27.20
2013,07,07,14,25,27.20
2013,07,07,14,26,27.10
2013,07,07,14,27,27.10
2013,07,07,14,28,27.10
2013,07,07,14,29,27.10
2013,07,07,14,30,27.10
2013,07,07,14,31,27.10
2013,07,07,14,32,27.00
2013,07,07,14,33,27.00
2013,07,07,14,34,27.00
2013,07,07,14,35,27.00
2013,07,07,14,36,27.10
2013,07,07,14,37,27.10
2013,07,07,14,38,27.20
2013,07,07,14,39,27.30
2013,07,07,14,40,27.30
2013,07,07,14,41,27.30
2013,07,07,14,42,27.40
2013,07,07,14,43,27.40
2013,07,07,14,44,27.40
2013,07,07,14,45,27.30
2013,07,07,14,46,27.20
2013,07,07,14,47,27.20
2013,07,07,14,48,27.10
2013,07,07,14,49,27.10
2013,07,07,14,50,27.20
2013,07,07,14,51,27.20
2013,07,07,14,52,27.20
2013,07,07,14,53,27.20
2013,07,07,14,54,27.20
2013,07,07,14,55,27.20
2013,07,07,14,56,27.30
2013,07,07,14,57,27.40
2013,07,07,14,58,27.50
2013,07,07,14,59,27.50
2013,07,07,15,00,27.50
2013,07,07,15,01,27.50
2013,07,07,15,02,27.50
2013,07,07,15,03,27.50
2013,07,07,15,04,27.50
2013,07,07,15,05,27.50
2013,07,07,15,06,27.50
2013,07,07,15,07,27.50
2013,07,07,15,08,27.60
2013,07,07,15,09,27.60
2013,07,07,15,10,27.60
2013,07,07,15,11,27.70
2013,07,07,15,12,27.70
2013,07,07,15,13,27.70
2013,07,07,15,14,27.70
2013,07,07,15,15,27.70
2013,07,07,15,16,27.80
2013,07,07,15,17,27.80
2013,07,07,15,18,27.80
2013,07,07,15,19,27.80
2013,07,07,15,20,27.90
2013,07,07,15,21,28.00
2013,07,07,15,22,28.00
2013,07,07,15,23,28.00
2013,07,07,15,24,27.90
2013,07,07,15,25,27.90
2013,07,07,15,26,27.80
2013,07,07,15,27,27.80
2013,07,07,15,28,27.80
2013,07,07,15,29,27.80
2013,07,07,15,30,27.80
2013,07,07,15,31,27.80
2013,07,07,15,32,27.80
2013,07,07,15,33,27.80
2013,07,07,15,34,27.80
2013,07,07,15,35,27.80
2013,07,07,15,36,27.80
2013,07,07,15,37,27.90
2013,07,07,15,38,27.90
2013,07,07,15,39,27.90
2013,07,07,15,40,28.00
2013,07,07,15,41,28.10
2013,07,07,15,42,28.20
2013,07,07,15,43,28.30
2013,07,07,15,44,28.30
2013,07,07,15,45,28.30
2013,07,07,15,46,28.30
2013,07,07,15,47,28.40
2013,07,07,15,48,28.40
2013,07,07,15,49,28.40
2013,07,07,15,50,28.40
2013,07,07,15,51,28.60
2013,07,07,15,52,28.60
2013,07,07,15,53,28.70
2013,07,07,15,54,28.80
2013,07,07,15,55,28.80
2013,07,07,15,56,28.80
2013,07,07,15,57,28.70
2013,07,07,15,58,28.60
2013,07,07,15,59,28.50
2013,07,07,16,00,28.40
2013,07,07,16,01,28.40
2013,07,07,16,02,28.30
2013,07,07,16,03,28.20
2013,07,07,16,04,28.10
2013,07,07,16,05,28.00
2013,07,07,16,06,27.90
2013,07,07,16,07,27.80
2013,07,07,16,08,27.80
2013,07,07,16,09,27.70
2013,07,07,16,10,27.70
2013,07,07,16,11,27.70
2013,07,07,16,12,27.80
2013,07,07,16,13,27.90
2013,07,07,16,14,28.10
2013,07,07,16,15,28.20
2013,07,07,16,16,28.20
2013,07,07,16,17,28.10
2013,07,07,16,18,28.00
2013,07,07,16,19,28.00
2013,07,07,16,20,28.00
2013,07,07,16,21,28.10
2013,07,07,16,22,28.10
2013,07,07,16,23,28.20
2013,07,07,16,24,28.30
2013,07,07,16,25,28.40
2013,07,07,16,26,28.40
2013,07,07,16,27,28.40
2013,07,07,16,28,28.40
2013,07,07,16,29,28.40
2013,07,07,16,30,28.30
2013,07,07,16,31,28.30
2013,07,07,16,32,28.20
2013,07,07,16,33,28.10
2013,07,07,16,34,28.00
2013,07,07,16,35,27.90
2013,07,07,16,36,27.80
2013,07,07,16,37,27.70
2013,07,07,16,38,27.60
2013,07,07,16,39,27.60
2013,07,07,16,40,27.50
2013,07,07,16,41,27.40
2013,07,07,16,42,27.30
2013,07,07,16,43,27.20
2013,07,07,16,44,27.00
2013,07,07,16,45,26.80
2013,07,07,16,46,26.60
2013,07,07,16,47,26.40
2013,07,07,16,48,26.30
2013,07,07,16,49,26.20
2013,07,07,16,50,26.10
2013,07,07,16,51,26.00
2013,07,07,16,52,25.90
2013,07,07,16,53,25.80
2013,07,07,16,54,25.60
2013,07,07,16,55,25.50
2013,07,07,16,56,25.40
2013,07,07,16,57,25.30
2013,07,07,16,58,25.30
2013,07,07,16,59,25.20
2013,07,07,17,00,25.20
2013,07,07,17,01,25.20
2013,07,07,17,02,25.10
2013,07,07,17,03,25.10
2013,07,07,17,04,25.10
2013,07,07,17,05,25.10
2013,07,07,17,06,25.00
2013,07,07,17,07,25.00
2013,07,07,17,08,25.00
2013,07,07,17,09,24.90
2013,07,07,17,10,24.90
2013,07,07,17,11,24.90
2013,07,07,17,12,24.90
2013,07,07,17,13,24.90
2013,07,07,17,14,24.90
2013,07,07,17,15,24.90
2013,07,07,17,16,24.90
2013,07,07,17,17,24.90
2013,07,07,17,18,24.90
2013,07,07,17,19,24.90